Eagle River, WI

8:04 AM CDT on May 24, 2017 (GMT -0500)
Eagle River Union

Weather History for KEGV - April, 2013

Change the Weather History Date:

Friday, April 12, 2013

  Actual Average Record
Temperature  
Mean Temperature 29 °F -  
Max Temperature 32 °F 42 °F 75 °F (1998)
Min Temperature 26 °F 24 °F 16 °F (1992)
Degree Days  
Heating Degree Days 36    
Moisture  
Dew Point 24 °F    
Average Humidity 83    
Maximum Humidity 100    
Minimum Humidity 64    
Precipitation  
Precipitation 0.04 in - - ()
Sea Level Pressure  
Sea Level Pressure 29.65 in    
Wind  
Wind Speed 9 mph (NE)    
Max Wind Speed 17 mph    
Max Gust Speed 24 mph    
Visibility 4 miles    
Events Snow    
Averages and records for this station are not official NWS values.
T = Trace of Precipitation, MM = Missing Value Source: NWS Daily Summary

Daily Weather History Graph

Daily Weather History Graph

Search for Another Location

Airport or City:

Trip Planner

Search our weather history database for the weather conditions in past years. The results will help you decide how hot, cold, wet, or windy it might be!

Date:

Astronomy

Apr. 12, 2013 Rise Set
Actual Time 6:15 AM CDT 7:40 PM CDT
Civil Twilight 5:44 AM CDT 8:11 PM CDT
Nautical Twilight 5:07 AM CDT 8:49 PM CDT
Astronomical Twilight 4:27 AM CDT 9:29 PM CDT
Moon 7:18 AM CDT (4/12) 10:19 PM CDT (4/12)
Length of Visible Light 14h 26m
Length of Day
13h 24m
Waxing Crescent, 5% of the Moon is Illuminated
Apr 12
Waxing Crescent
Apr 18
First Quarter
Apr 25
Full
May 2
Last Quarter
May 9
New

Hourly Weather History & Observations

Time (CDT) Temp. Windchill Dew Point Humidity Pressure Visibility Wind Dir Wind Speed Gust Speed Precip Events Conditions
12:15 AM 26.6 °F 17.5 °F 23.0 °F 86% 29.72 in 5.0 mi East 9.2 mph 17.3 mph N/A Snow Light Snow
12:35 AM 26.6 °F 16.2 °F 23.0 °F 86% 29.71 in 2.5 mi East 11.5 mph - N/A Snow Light Snow
12:55 AM 26.6 °F 14.7 °F 23.0 °F 86% 29.69 in 2.5 mi East 15.0 mph 24.2 mph N/A Snow Light Snow
1:15 AM 26.6 °F 15.2 °F 23.0 °F 86% 29.68 in 2.5 mi East 13.8 mph 19.6 mph N/A Snow Light Snow
1:35 AM 26.6 °F 14.3 °F 23.0 °F 86% 29.67 in 2.0 mi East 16.1 mph - N/A Snow Light Snow
1:55 AM 26.6 °F 15.7 °F 23.0 °F 86% 29.67 in 2.5 mi East 12.7 mph 19.6 mph N/A Snow Light Snow
2:15 AM 26.6 °F 15.7 °F 21.2 °F 80% 29.67 in 10.0 mi East 12.7 mph 16.1 mph N/A   Overcast
2:55 AM 26.6 °F 15.2 °F 21.2 °F 80% 29.65 in 7.0 mi East 13.8 mph 19.6 mph N/A   Overcast
3:15 AM 26.6 °F 15.2 °F 23.0 °F 86% 29.65 in 3.0 mi East 13.8 mph 21.9 mph N/A   Overcast
3:35 AM 26.6 °F 15.7 °F 23.0 °F 86% 29.65 in 3.0 mi East 12.7 mph 21.9 mph N/A   Overcast
3:55 AM 26.6 °F 16.2 °F 23.0 °F 86% 29.65 in 2.5 mi East 11.5 mph 20.7 mph N/A   Overcast
4:15 AM 26.6 °F 13.8 °F 23.0 °F 86% 29.64 in 2.0 mi ENE 17.3 mph 21.9 mph N/A   Overcast
4:55 AM 26.6 °F 15.2 °F 23.0 °F 86% 29.64 in 3.0 mi ENE 13.8 mph 20.7 mph N/A   Overcast
5:15 AM 26.6 °F 16.8 °F 23.0 °F 86% 29.63 in 2.5 mi ENE 10.4 mph 18.4 mph N/A Snow Light Snow
5:35 AM 26.6 °F 16.8 °F 21.2 °F 80% 29.63 in 3.0 mi East 10.4 mph 17.3 mph N/A Snow Light Snow
5:55 AM 26.6 °F 18.2 °F 21.2 °F 80% 29.64 in 4.0 mi East 8.1 mph - N/A Snow Light Snow
6:15 AM 26.6 °F 20.0 °F 23.0 °F 86% 29.63 in 1.0 mi ENE 5.8 mph - N/A Snow Light Snow
6:35 AM 26.6 °F 17.5 °F 24.8 °F 93% 29.63 in 0.5 mi ENE 9.2 mph - N/A Snow Light Snow
6:55 AM 26.6 °F 18.2 °F 24.8 °F 93% 29.62 in 0.8 mi ENE 8.1 mph - N/A Snow Light Snow
7:15 AM 26.6 °F 19.1 °F 24.8 °F 93% 29.63 in 1.0 mi ENE 6.9 mph - N/A Snow Light Snow
7:35 AM 26.6 °F 17.5 °F 24.8 °F 93% 29.62 in 1.5 mi ENE 9.2 mph - N/A Snow Light Snow
7:55 AM 26.6 °F 19.1 °F 24.8 °F 93% 29.63 in 2.0 mi ENE 6.9 mph - N/A Snow Light Snow
8:15 AM 26.6 °F 17.5 °F 23.0 °F 86% 29.62 in 2.0 mi ENE 9.2 mph - N/A Snow Light Snow
8:35 AM 26.6 °F 17.5 °F 23.0 °F 86% 29.62 in 1.2 mi ENE 9.2 mph - N/A Snow Light Snow
8:55 AM 26.6 °F 18.2 °F 23.0 °F 86% 29.62 in 2.5 mi NE 8.1 mph - N/A Snow Light Snow
9:15 AM 26.6 °F 18.2 °F 21.2 °F 80% 29.62 in 1.5 mi ENE 8.1 mph - N/A Snow Light Snow
9:35 AM 28.4 °F 19.7 °F 21.2 °F 74% 29.62 in 1.5 mi ENE 9.2 mph - N/A Snow Light Snow
9:55 AM 28.4 °F 20.4 °F 23.0 °F 80% 29.62 in 1.8 mi ENE 8.1 mph - N/A Snow Light Snow
10:15 AM 28.4 °F 19.1 °F 21.2 °F 74% 29.62 in 1.8 mi ENE 10.4 mph 18.4 mph N/A Snow Light Snow
10:35 AM 28.4 °F 19.7 °F 21.2 °F 74% 29.62 in 2.5 mi East 9.2 mph 17.3 mph N/A Snow Light Snow
10:55 AM 28.4 °F 19.7 °F 21.2 °F 74% 29.62 in 2.0 mi ENE 9.2 mph - N/A Snow Light Snow
11:15 AM 28.4 °F 18.5 °F 21.2 °F 74% 29.62 in 1.2 mi ENE 11.5 mph - N/A Snow Light Snow
11:35 AM 30.2 °F 25.4 °F 23.0 °F 75% 29.62 in 1.8 mi ENE 4.6 mph - N/A Snow Light Snow
11:55 AM 30.2 °F 24.3 °F 23.0 °F 75% 29.62 in 1.8 mi East 5.8 mph - N/A Snow Light Snow
12:15 PM 30.2 °F 24.3 °F 23.0 °F 75% 29.62 in 1.5 mi ENE 5.8 mph - N/A Snow Light Snow
12:35 PM 30.2 °F 22.6 °F 23.0 °F 75% 29.62 in 1.8 mi East 8.1 mph - N/A Snow Light Snow
12:55 PM 32.0 °F 26.4 °F 23.0 °F 69% 29.62 in 4.0 mi ESE 5.8 mph - N/A Snow Light Snow
1:15 PM 30.2 °F 26.7 °F 23.0 °F 75% 29.62 in 1.8 mi ENE 3.5 mph - 0.01 in Snow Light Snow
1:35 PM 30.2 °F - 23.0 °F 75% 29.61 in 7.0 mi Calm Calm - 0.02 in Snow Light Snow
1:55 PM 32.0 °F - 23.0 °F 69% 29.62 in 7.0 mi Calm Calm - 0.02 in Snow Light Snow
2:15 PM 32.0 °F - 21.2 °F 64% 29.62 in 10.0 mi Calm Calm - N/A   Overcast
2:35 PM 30.2 °F 26.7 °F 23.0 °F 75% 29.62 in 10.0 mi NE 3.5 mph - N/A   Overcast
2:55 PM 30.2 °F 26.7 °F 23.0 °F 75% 29.62 in 1.8 mi North 3.5 mph - 0.01 in Snow Light Snow
3:15 PM 32.0 °F - 23.0 °F 69% 29.62 in 2.0 mi Calm Calm - N/A   Overcast
3:35 PM 30.2 °F - 26.6 °F 86% 29.63 in 2.0 mi Calm Calm - N/A Snow Light Snow
3:55 PM 30.2 °F 26.7 °F 26.6 °F 86% 29.63 in 1.8 mi NNW 3.5 mph - N/A Snow Light Snow
4:15 PM 30.2 °F 25.4 °F 24.8 °F 80% 29.63 in 1.0 mi NNE 4.6 mph - N/A   Overcast
4:35 PM 30.2 °F - 24.8 °F 80% 29.64 in 1.5 mi Calm Calm - N/A Snow Light Snow
4:55 PM 30.2 °F - 26.6 °F 86% 29.64 in 1.0 mi Calm Calm - 0.01 in Snow Light Snow
5:15 PM 30.2 °F 26.7 °F 26.6 °F 86% 29.65 in 1.2 mi North 3.5 mph - N/A Snow Light Snow
5:35 PM 30.2 °F 26.7 °F 26.6 °F 86% 29.65 in 0.5 mi NNW 3.5 mph - N/A Snow Light Snow
5:55 PM 30.2 °F 25.4 °F 26.6 °F 86% 29.65 in 3.0 mi NNE 4.6 mph - N/A Snow Light Snow
6:15 PM 30.2 °F 24.3 °F 26.6 °F 86% 29.65 in 1.5 mi North 5.8 mph - N/A Snow Light Snow
6:35 PM 30.2 °F - 26.6 °F 86% 29.66 in 3.0 mi Calm Calm - N/A Snow Light Snow
6:55 PM 30.2 °F 25.4 °F 26.6 °F 86% 29.67 in 5.0 mi NNW 4.6 mph - N/A Snow Light Snow
7:15 PM 30.2 °F 24.3 °F 26.6 °F 86% 29.67 in 5.0 mi North 5.8 mph - N/A Snow Light Snow
7:35 PM 30.2 °F 26.7 °F 26.6 °F 86% 29.67 in 3.0 mi North 3.5 mph - N/A Snow Light Snow
7:55 PM 28.4 °F 21.2 °F 26.6 °F 93% 29.67 in 2.0 mi North 6.9 mph - N/A Snow Light Snow
8:15 PM 28.4 °F 23.3 °F 24.8 °F 86% 29.67 in 10.0 mi North 4.6 mph - N/A Snow Light Snow
8:35 PM 28.4 °F 24.6 °F 23.0 °F 80% 29.68 in 10.0 mi North 3.5 mph - N/A   Overcast
8:55 PM 28.4 °F 23.3 °F 23.0 °F 80% 29.68 in 10.0 mi North 4.6 mph - N/A Snow Light Snow
9:15 PM 28.4 °F 23.3 °F 23.0 °F 80% 29.69 in 10.0 mi North 4.6 mph - N/A   Overcast
9:35 PM 28.4 °F 23.3 °F 24.8 °F 86% 29.69 in 4.0 mi North 4.6 mph - N/A Snow Light Snow
9:55 PM 28.4 °F 21.2 °F 23.0 °F 80% 29.69 in 7.0 mi North 6.9 mph - N/A Snow Light Snow
10:15 PM 26.6 °F 20.0 °F 23.0 °F 86% 29.69 in 3.0 mi North 5.8 mph - N/A Snow Light Snow
10:35 PM 26.6 °F 21.2 °F 23.0 °F 86% 29.69 in 4.0 mi NNW 4.6 mph - N/A Snow Light Snow
10:55 PM 26.6 °F 22.6 °F 23.0 °F 86% 29.69 in 10.0 mi NNW 3.5 mph - N/A   Scattered Clouds
11:15 PM 26.6 °F 22.6 °F 26.6 °F 100% 29.69 in 7.0 mi North 3.5 mph - N/A   Scattered Clouds
11:35 PM 26.6 °F 21.2 °F 26.6 °F 100% 29.69 in 10.0 mi NNW 4.6 mph - N/A   Mostly Cloudy
11:55 PM 26.6 °F 22.6 °F 26.6 °F 100% 29.69 in 10.0 mi NNW 3.5 mph - N/A   Overcast